| time (UTC) | temp C | wind direction | speed KPH | gust KPH | rain 1hr cm | rain 24hr cm | rain mn cm | humidity % | barometer mb |
| 20260504100244 | -17 | 109 | 0.0 | 1.6 | 0.00 | 0.00 | 0.00 | 1012.5 | |
| 20260504090118 | -17 | 118 | 0.0 | 3.2 | 0.00 | 0.00 | 0.00 | 1012.9 | |
| 20260504081459 | -17 | 127 | 0.0 | 0.0 | 0.00 | 0.00 | 0.00 | 1013.1 | |
| 20260504080950 | -17 | 127 | 0.0 | 0.0 | 0.00 | 0.00 | 0.00 | 1013.1 | |
| 20260504080439 | -17 | 154 | 0.0 | 0.0 | 0.00 | 0.00 | 0.00 | 1013.3 | |
| 20260504080201 | -17 | 110 | 0.0 | 0.0 | 0.00 | 0.00 | 0.00 | 1013.5 | |
| 20260504070247 | -17 | 140 | 0.0 | 0.0 | 0.00 | 0.00 | 0.00 | 1014.5 | |
| 20260504050354 | -17 | 115 | 4.8 | 6.4 | 0.00 | 0.00 | 0.00 | 1015.6 | |
| 20260504050115 | -17 | 115 | 4.8 | 6.4 | 0.00 | 0.00 | 0.00 | 1015.7 | |
| 20260504045606 | -17 | 117 | 6.4 | 6.4 | 0.00 | 0.00 | 0.00 | 1015.8 | |
| 20260504045055 | -17 | 115 | 6.4 | 9.7 | 0.00 | 0.00 | 0.00 | 1015.8 | |
| 20260504044545 | -17 | 122 | 6.4 | 6.4 | 0.00 | 0.00 | 0.00 | 1015.8 | |
| 20260504043805 | -17 | 10 | 4.8 | 6.4 | 0.00 | 0.00 | 0.00 | 1015.9 | |
| 20260504043254 | -17 | 137 | 4.8 | 6.4 | 0.00 | 0.00 | 0.00 | 1015.9 | |
| 20260504042744 | -17 | 10 | 4.8 | 6.4 | 0.00 | 0.00 | 0.00 | 1015.9 | |
| 20260504042234 | -17 | 127 | 6.4 | 6.4 | 0.00 | 0.00 | 0.00 | 1015.9 | |
| 20260504041734 | -17 | 113 | 6.4 | 6.4 | 0.00 | 0.00 | 0.00 | 1015.9 | |
| 20260504041226 | -17 | 128 | 4.8 | 6.4 | 0.00 | 0.00 | 0.00 | 1015.9 | |
| 20260504040716 | -17 | 110 | 4.8 | 6.4 | 0.00 | 0.00 | 0.00 | 1015.8 | |
| 20260504040206 | -17 | 115 | 4.8 | 6.4 | 0.00 | 0.00 | 0.00 | 1015.9 | |
| 20260504035654 | -17 | 111 | 3.2 | 6.4 | 0.00 | 0.00 | 0.00 | 1015.9 | |
| 20260504035136 | -17 | 108 | 3.2 | 4.8 | 0.00 | 0.00 | 0.00 | 1015.8 | |
| 20260504034626 | -17 | 105 | 3.2 | 4.8 | 0.00 | 0.00 | 0.00 | 1015.8 | |
| 20260504034116 | -17 | 106 | 3.2 | 6.4 | 0.00 | 0.00 | 0.00 | 1015.9 | |
| 20260504033606 | -17 | 107 | 4.8 | 6.4 | 0.00 | 0.00 | 0.00 | 1015.9 | |
| 20260504033056 | -17 | 112 | 6.4 | 6.4 | 0.00 | 0.00 | 0.00 | 1015.9 | |
| 20260504032546 | -17 | 10 | 4.8 | 6.4 | 0.00 | 0.00 | 0.00 | 1015.8 | |
| 20260504032028 | -17 | 10 | 4.8 | 6.4 | 0.00 | 0.00 | 0.00 | 1015.8 | |
| 20260504031525 | -17 | 119 | 3.2 | 6.4 | 0.00 | 0.00 | 0.00 | 1015.8 | |
| 20260504031023 | -17 | 125 | 3.2 | 6.4 | 0.00 | 0.00 | 0.00 | 1015.9 | |
| 20260504030522 | -17 | 118 | 4.8 | 6.4 | 0.00 | 0.00 | 0.00 | 1015.7 | |
| 20260504030002 | -17 | 116 | 6.4 | 6.4 | 0.00 | 0.00 | 0.00 | 1015.6 | |
| 20260504025452 | -17 | 10 | 4.8 | 6.4 | 0.00 | 0.00 | 0.00 | 1015.5 | |
| 20260504024942 | -17 | 10 | 4.8 | 6.4 | 0.00 | 0.00 | 0.00 | 1015.5 | |
| 20260504024433 | -17 | 114 | 6.4 | 6.4 | 0.00 | 0.00 | 0.00 | 1015.6 | |
| 20260504024155 | -17 | 10 | 6.4 | 6.4 | 0.00 | 0.00 | 0.00 | 1015.6 | |
| 20260504023412 | -17 | 123 | 6.4 | 6.4 | 0.00 | 0.00 | 0.00 | 1015.5 | |
| 20260504022902 | -17 | 115 | 6.4 | 8.0 | 0.00 | 0.00 | 0.00 | 1015.5 | |
| 20260504022352 | -17 | 115 | 6.4 | 8.0 | 0.00 | 0.00 | 0.00 | 1015.4 | |
| 20260504021842 | -17 | 114 | 6.4 | 6.4 | 0.00 | 0.00 | 0.00 | 1015.4 | |
| 20260504021332 | -17 | 10 | 6.4 | 6.4 | 0.00 | 0.00 | 0.00 | 1015.4 | |
| 20260504020822 | -17 | 129 | 6.4 | 9.7 | 0.00 | 0.00 | 0.00 | 1015.5 | |
| 20260504020312 | -17 | 115 | 6.4 | 9.7 | 0.00 | 0.00 | 0.00 | 1015.4 | |
| 20260504015806 | -17 | 127 | 6.4 | 6.4 | 0.00 | 0.00 | 0.00 | 1015.4 | |
| 20260504015258 | -17 | 121 | 6.4 | 9.7 | 0.00 | 0.00 | 0.00 | 1015.4 | |
| 20260504014748 | -17 | 123 | 6.4 | 9.7 | 0.00 | 0.00 | 0.00 | 1015.4 | |
| 20260504014238 | -17 | 10 | 4.8 | 9.7 | 0.00 | 0.00 | 0.00 | 1015.4 | |
| 20260504013732 | -17 | 10 | 4.8 | 9.7 | 0.00 | 0.00 | 0.00 | 1015.4 | |
| 20260504013222 | -17 | 123 | 6.4 | 9.7 | 0.00 | 0.00 | 0.00 | 1015.3 | |
| 20260504012208 | -17 | 10 | 6.4 | 12.9 | 0.00 | 0.00 | 0.00 | 1015.4 | |
| 20260504011658 | -17 | 118 | 8.0 | 12.9 | 0.00 | 0.00 | 0.00 | 1015.3 | |
| 20260504011148 | -17 | 138 | 8.0 | 14.5 | 0.00 | 0.00 | 0.00 | 1015.4 | |
| 20260504010639 | -17 | 10 | 8.0 | 12.9 | 0.00 | 0.00 | 0.00 | 1015.4 | |
| 20260504010132 | -17 | 138 | 9.7 | 14.5 | 0.00 | 0.00 | 0.00 | 1015.4 | |
| 20260504005120 | -17 | 10 | 9.7 | 16.1 | 0.00 | 0.00 | 0.00 | 1015.4 | |
| 20260504004618 | -17 | 10 | 9.7 | 16.1 | 0.00 | 0.00 | 0.00 | 1015.4 | |
| 20260504004344 | -17 | 10 | 11.3 | 17.7 | 0.00 | 0.00 | 0.00 | 1015.4 | |
| 20260504003609 | -17 | 10 | 12.9 | 17.7 | 0.00 | 0.00 | 0.00 | 1015.4 | |
| 20260504003102 | -17 | 10 | 12.9 | 16.1 | 0.00 | 0.00 | 0.00 | 1015.4 | |
| 20260504002601 | -17 | 159 | 12.9 | 19.3 | 0.00 | 0.00 | 0.00 | 1015.4 | |
| 20260504002055 | -17 | 10 | 12.9 | 19.3 | 0.00 | 0.00 | 0.00 | 1015.3 | |
| 20260504001550 | -17 | 10 | 11.3 | 17.7 | 0.00 | 0.00 | 0.00 | 1015.3 | |
| 20260504001045 | -17 | 10 | 11.3 | 17.7 | 0.00 | 0.00 | 0.00 | 1015.4 | |
| 20260504000539 | -17 | 10 | 14.5 | 19.3 | 0.00 | 0.00 | 0.00 | 1015.6 | |
| 20260504000031 | -17 | 10 | 12.9 | 19.3 | 0.00 | 0.00 | 0.00 | 1015.6 | |
| 20260503235523 | -17 | 10 | 14.5 | 19.3 | 0.00 | 0.00 | 0.00 | 1015.6 | |
| 20260503235019 | -17 | 10 | 16.1 | 19.3 | 0.00 | 0.00 | 0.00 | 1015.5 | |
| 20260503234516 | -17 | 153 | 16.1 | 19.3 | 0.00 | 0.00 | 0.00 | 1015.5 | |
| 20260503234014 | -17 | 10 | 16.1 | 19.3 | 0.00 | 0.00 | 0.00 | 1015.4 | |
| 20260503233746 | -17 | 10 | 17.7 | 22.5 | 0.00 | 0.00 | 0.00 | 1015.5 | |
| 20260503233011 | -17 | 10 | 16.1 | 22.5 | 0.00 | 0.00 | 0.00 | 1015.5 | |
| 20260503232737 | -17 | 10 | 14.5 | 22.5 | 0.00 | 0.00 | 0.00 | 1015.6 | |
| 20260503232002 | -17 | 10 | 14.5 | 22.5 | 0.00 | 0.00 | 0.00 | 1015.6 | |
| 20260503231456 | -17 | 163 | 14.5 | 20.9 | 0.00 | 0.00 | 0.00 | 1015.8 | |
| 20260503230950 | -17 | 10 | 14.5 | 19.3 | 0.00 | 0.00 | 0.00 | 1015.7 | |
| 20260503230714 | -17 | 10 | 14.5 | 19.3 | 0.00 | 0.00 | 0.00 | 1015.7 | |
| 20260503225940 | -17 | 10 | 16.1 | 22.5 | 0.00 | 0.00 | 0.00 | 1015.8 | |
| 20260503225432 | -17 | 10 | 16.1 | 22.5 | 0.00 | 0.00 | 0.00 | 1015.7 | |
| 20260503224927 | -17 | 134 | 16.1 | 19.3 | 0.00 | 0.00 | 0.00 | 1015.7 | |
| 20260503224417 | -17 | 10 | 17.7 | 24.1 | 0.00 | 0.00 | 0.00 | 1015.8 | |
| 20260503223909 | -17 | 10 | 16.1 | 24.1 | 0.00 | 0.00 | 0.00 | 1015.8 | |
| 20260503223406 | -17 | 10 | 16.1 | 24.1 | 0.00 | 0.00 | 0.00 | 1015.9 | |
| 20260503222855 | -17 | 187 | 16.1 | 22.5 | 0.00 | 0.00 | 0.00 | 1015.9 | |
| 20260503222348 | -17 | 10 | 16.1 | 20.9 | 0.00 | 0.00 | 0.00 | 1015.8 | |
| 20260503221839 | -17 | 10 | 16.1 | 22.5 | 0.00 | 0.00 | 0.00 | 1015.9 | |
| 20260503221329 | -17 | 164 | 16.1 | 19.3 | 0.00 | 0.00 | 0.00 | 1016.0 | |
| 20260503220822 | -17 | 10 | 16.1 | 20.9 | 0.00 | 0.00 | 0.00 | 1016.1 | |
| 20260503220312 | -17 | 10 | 16.1 | 20.9 | 0.00 | 0.00 | 0.00 | 1016.2 | |
| 20260503215249 | -17 | 193 | 16.1 | 20.9 | 0.00 | 0.00 | 0.00 | 1016.4 | |
| 20260503214733 | -17 | 10 | 16.1 | 20.9 | 0.00 | 0.00 | 0.00 | 1016.4 | |
| 20260503214224 | -17 | 10 | 16.1 | 22.5 | 0.00 | 0.00 | 0.00 | 1016.4 | |
| 20260503213713 | -17 | 172 | 16.1 | 22.5 | 0.00 | 0.00 | 0.00 | 1016.5 | |
| 20260503213434 | -17 | 10 | 16.1 | 24.1 | 0.00 | 0.00 | 0.00 | 1016.5 | |
| 20260503212648 | -17 | 192 | 16.1 | 24.1 | 0.00 | 0.00 | 0.00 | 1016.7 | |
| 20260503212137 | -17 | 192 | 16.1 | 22.5 | 0.00 | 0.00 | 0.00 | 1016.9 | |
| 20260503211346 | -17 | 10 | 16.1 | 20.9 | 0.00 | 0.00 | 0.00 | 1017.0 | |
| 20260503210605 | -17 | 10 | 17.7 | 22.5 | 0.00 | 0.00 | 0.00 | 1017.0 | |
| 20260503210326 | -17 | 10 | 16.1 | 22.5 | 0.00 | 0.00 | 0.00 | 1017.0 | |
| 20260503205546 | -17 | 10 | 16.1 | 22.5 | 0.00 | 0.00 | 0.00 | 1017.1 | |
| 20260503205307 | -17 | 162 | 17.7 | 24.1 | 0.00 | 0.00 | 0.00 | 1017.1 | |
| 20260503204525 | -17 | 194 | 17.7 | 24.1 | 0.00 | 0.00 | 0.00 | 1017.2 | |
| 20260503204016 | -17 | 10 | 17.7 | 24.1 | 0.00 | 0.00 | 0.00 | 1017.4 | |
| 20260503203506 | -17 | 164 | 17.7 | 22.5 | 0.00 | 0.00 | 0.00 | 1017.4 | |
| 20260503202949 | -17 | 10 | 17.7 | 24.1 | 0.00 | 0.00 | 0.00 | 1017.4 | |
| 20260503202712 | -17 | 195 | 17.7 | 24.1 | 0.00 | 0.00 | 0.00 | 1017.4 | |
| 20260503201922 | -17 | 10 | 17.7 | 24.1 | 0.00 | 0.00 | 0.00 | 1017.5 | |
| 20260503201411 | -17 | 173 | 16.1 | 24.1 | 0.00 | 0.00 | 0.00 | 1017.5 | |
| 20260503200901 | -17 | 188 | 17.7 | 24.1 | 0.00 | 0.00 | 0.00 | 1017.6 | |
| 20260503200620 | -17 | 186 | 17.7 | 24.1 | 0.00 | 0.00 | 0.00 | 1017.6 | |
| 20260503195845 | -17 | 10 | 17.7 | 24.1 | 0.00 | 0.00 | 0.00 | 1017.8 | |
| 20260503195336 | -17 | 10 | 16.1 | 24.1 | 0.00 | 0.00 | 0.00 | 1017.8 | |
| 20260503194824 | -17 | 181 | 16.1 | 24.1 | 0.00 | 0.00 | 0.00 | 1017.9 | |
| 20260503194313 | -17 | 154 | 17.7 | 24.1 | 0.00 | 0.00 | 0.00 | 1018.0 | |
| 20260503193803 | -17 | 10 | 16.1 | 24.1 | 0.00 | 0.00 | 0.00 | 1017.9 | |
| 20260503193259 | -17 | 10 | 14.5 | 25.7 | 0.00 | 0.00 | 0.00 | 1018.0 | |
| 20260503192747 | -17 | 217 | 16.1 | 22.5 | 0.00 | 0.00 | 0.00 | 1018.1 | |
| 20260503192237 | -17 | 10 | 16.1 | 22.5 | 0.00 | 0.00 | 0.00 | 1018.1 | |
| 20260503191718 | -17 | 10 | 16.1 | 20.9 | 0.00 | 0.00 | 0.00 | 1018.1 | |
| 20260503191205 | -17 | 10 | 14.5 | 20.9 | 0.00 | 0.00 | 0.00 | 1018.2 | |
| 20260503190656 | -17 | 10 | 14.5 | 19.3 | 0.00 | 0.00 | 0.00 | 1018.4 | |
| 20260503190155 | -17 | 10 | 12.9 | 20.9 | 0.00 | 0.00 | 0.00 | 1018.4 | |
| 20260503185644 | -17 | 10 | 12.9 | 20.9 | 0.00 | 0.00 | 0.00 | 1018.4 | |
| 20260503185133 | -17 | 210 | 12.9 | 19.3 | 0.00 | 0.00 | 0.00 | 1018.4 | |
| 20260503184624 | -17 | 10 | 14.5 | 20.9 | 0.00 | 0.00 | 0.00 | 1018.5 | |
| 20260503184113 | -17 | 10 | 12.9 | 20.9 | 0.00 | 0.00 | 0.00 | 1018.6 | |
| 20260503183605 | -17 | 10 | 11.3 | 17.7 | 0.00 | 0.00 | 0.00 | 1018.8 | |
| 20260503183053 | -17 | 10 | 12.9 | 19.3 | 0.00 | 0.00 | 0.00 | 1018.9 | |
| 20260503182544 | -17 | 10 | 11.3 | 19.3 | 0.00 | 0.00 | 0.00 | 1018.9 | |
| 20260503182034 | -17 | 203 | 11.3 | 17.7 | 0.00 | 0.00 | 0.00 | 1019.0 | |
| 20260503181523 | -17 | 203 | 11.3 | 17.7 | 0.00 | 0.00 | 0.00 | 1019.1 | |
| 20260503181244 | -17 | 10 | 11.3 | 17.7 | 0.00 | 0.00 | 0.00 | 1019.2 | |
| 20260503175946 | -17 | 10 | 11.3 | 19.3 | 0.00 | 0.00 | 0.00 | 1019.2 | |
| 20260503175435 | -17 | 10 | 8.0 | 17.7 | 0.00 | 0.00 | 0.00 | 1019.4 | |
| 20260503174925 | -17 | 138 | 6.4 | 19.3 | 0.00 | 0.00 | 0.00 | 1019.4 | |
| 20260503174415 | -17 | 198 | 8.0 | 19.3 | 0.00 | 0.00 | 0.00 | 1019.5 | |
| 20260503173905 | -17 | 88 | 11.3 | 17.7 | 0.00 | 0.00 | 0.00 | 1019.7 | |
| 20260503173355 | -17 | 90 | 9.7 | 17.7 | 0.00 | 0.00 | 0.00 | 1019.8 | |
| 20260503172848 | -17 | 93 | 9.7 | 17.7 | 0.00 | 0.00 | 0.00 | 1019.9 | |
| 20260503172338 | -17 | 78 | 11.3 | 17.7 | 0.00 | 0.00 | 0.00 | 1020.0 | |
| 20260503171830 | -17 | 65 | 9.7 | 17.7 | 0.00 | 0.00 | 0.00 | 1020.0 | |
| 20260503171319 | -17 | 87 | 6.4 | 17.7 | 0.00 | 0.00 | 0.00 | 1020.1 | |
| 20260503170809 | -17 | 104 | 8.0 | 16.1 | 0.00 | 0.00 | 0.00 | 1020.1 | |
| 20260503170259 | -17 | 97 | 11.3 | 17.7 | 0.00 | 0.00 | 0.00 | 1020.2 | |
| 20260503160105 | -17 | 73 | 6.4 | 12.9 | 0.00 | 0.00 | 0.00 | 1020.4 | |
| 20260503150849 | -17 | 10 | 8.0 | 14.5 | 0.00 | 0.00 | 0.00 | 1020.2 | |
| 20260503150345 | -17 | 111 | 4.8 | 14.5 | 0.00 | 0.00 | 0.00 | 1020.1 | |
| 20260503140239 | -17 | 59 | 0.0 | 3.2 | 0.00 | 0.00 | 0.00 | 1019.7 | |
| 20260503131200 | -17 | 352 | 0.0 | 3.2 | 0.00 | 0.00 | 0.00 | 1019.6 | |
| 20260503130655 | -17 | 348 | 0.0 | 3.2 | 0.00 | 0.00 | 0.00 | 1019.5 | |
| 20260503130152 | -17 | 27 | 0.0 | 3.2 | 0.00 | 0.00 | 0.00 | 1019.4 | |
| 20260503110445 | -17 | 0 | 0.0 | 0.0 | 0.00 | 0.00 | 0.00 | 1018.5 |